FENGYUN 1C DEB, 41830

Orbit data source: Space-Track

FENGYUN 1C DEB, 41830 is space debris in SSO originally from a launch on Mon, 10 May 1999 UTC launched from the Taiyaun Space Center, China (TSC). Fengyun 1C debris stems from the Chinese weather satellite Fengyun-1C, which was intentionally destroyed by a Chinese anti-satellite missile in 2007. This event dramatically increased the amount of space debris, with thousands of trackable fragments posing hazards to satellites and human spaceflight. The Fengyun 1C debris cloud has become a focal point in discussions about space sustainability and the need for international regulations to prevent the creation of new debris.

Loading next visibility...
Identifier
41830, 1999-025EYH
Orbit
SSO
Country
Flag of CNCN / PRC
Related business
Manufacturer
Unknown
Mission
Spacecraft
Bus & Motor
Unknown
Mass
Unknown
Launch date (UTC)
1999-05-10 (27 years ago)
Launch vehicle
Unknown
Launch site
Taiyaun Space Center, China (TSC)
Object type
Payload
Rocket body
Debris
Shape & HBR
Unknown shape, 0.1 m
Radar Cross Section
Small (<0.1 m²)

Expand to show TLE details & history
Last TLE update: 1 day ago

TLE from 1 day ago
0 FENGYUN 1C DEB
1 41830U 99025EYH 26163.82753111  .00002971  00000-0  12011-2 0  9993
2 41830  98.7413 240.8186 0052891  50.0187 310.5621 14.27838352498715
Epoch: 2026-06-12T19:51Z
TLE epoch observation values (Epoch: 2026-06-12T19:51:38.687Z)
Latitude
0.00001°
Longitude
41.75602°
Altitude
777.317 km
Speed
7.478 km/s
True Right ascension
16h 03m 16s
True Declination
0° 00' 00"
Sunlit
Object was in full shadow at epoch
Visualization orbit readout
Latitude
Unknown
Longitude
Unknown
Altitude
Unknown
Speed
Unknown
Apparent Right ascension
Unknown
Apparent Declination
Unknown
Sunlit
N/A
Visualization observer readout
Local Sidereal Time
14:09:21
Azimuth
Unknown
Elevation
Unknown
Doppler factor
Unknown
Orbital elements
Apogee altitude
834.06 km
Perigee altitude
758.17 km
Semi-major axis
7,174.252 km
Eccentricity
0.00529
Inclination
98.7413°
RAAN
240.8186°
Arg. of periapsis
50.0187°
True anomaly
310.09967°
Mean anomaly
310.5621°
Eccentric anomaly
310.33108°
Mean motion
3.57173 °/min
Orbital period
100.79 mins
BSTAR
0.0012011
Loading maneuver chart data...
Computing Atmospheric mass density...
Loading historical data...
Loading historical data...
Loading historical data...
Loading historical data...
Loading historical data...
Loading historical data...
Loading historical data...

Documentation

Showing up to 5 results
|